Torna al catalogo

BURDAEV M.N.

AttivoNavigazioneSSO
NORAD 57199·PAYLOAD·🇷🇺 Russia
Questo nome del satellite non è ancora stato confermato da fonti ufficiali.

Lanciato Jun 27, 2023 da Vostochny Cosmodrome

Loading…

Prossimi Passaggi (prossime 24 ore)

TLE

AggiornatoSource: Space-Track

Epoca: Sep 14, 2026, 12:24 UTC

1 57199U 23091AK  26257.51678055  .00017677  00000-0  41956-3 0  9991
2 57199  97.4995 330.3614 0007270 109.8888 250.3143 15.41743278178516

Traccia BURDAEV M.N. in tempo reale con AllMySat

Download on the App Store